STARLINK-32692 (62422 NORAD) Tracking and Keplerian Element Data

This shows tracking and keplerian element data for the satellite.

Feedback or suggestion? Click here.




ElementValue
Catalog62422
NameSTARLINK-32692
Epoch Orbit670
Epoch Day35.08809387
Epoch Year2025
RAAN58.0459
Inclination43.002
Eccentricity8.63E-05
Argument of Perigee267.1325
Mean Anonmoly92.9433
Mean Motion15.40698302
Decay Rate-1.7E-07
L11 62422U 24249P 25035.08809387 -.00000017 00000+0 68494-5 0 9999
L22 62422 43.0020 58.0459 0000863 267.1325 92.9433 15.40698302 6702



Live tracking and technical data element details for STARLINK-32692 (NORAD 62422). STARLINK-32692 can be tracked NOW for your location showing map with azimuth and elevation plus other details from your city location.







IsCatalogInMostPopularTable: catalog: 62422, numindb: 11
Update: records affected: 1



GetName: 62422 STARLINK-32692

Hit Count: updated at: Sun, 18 May 2025 23:19:39 GMT